Location: Denia
(38.8500°N, 0.1170°E)
Time: 21:39:08
(UTC+01:00)

Envisat - Pass Details

Date: 24 January 2020
Orbit: 764 x 766 km, 98.1° (Epoch: 22 February)

Event Time Altitude Azimuth Distance (km) Brightness Sun altitude
Rises 06:11:45 0° 38° (NE) 3,237 6.7 -23.4°
Reaches altitude 10° 06:16:06 10° 74° (ENE) 2,303 6.4 -22.5°
Maximum altitude 06:17:27 11° 89° (E) 2,233 6.5 -22.3°
Drops below altitude 10° 06:18:47 10° 105° (ESE) 2,298 6.6 -22.0°
Sets 06:23:06 0° 140° (SE) 3,217 7.0 -21.2°
